Location: Township of Marena
(38.1747°N, 99.6798°W)
Time: 03:23:13
(UTC+00:00)

Cosmos 2297 Rocket - Pass Details

Date: 26 October 2020
Orbit: 838 x 845 km, 71.0° (Epoch: 24 November)

Event Time Altitude Azimuth Distance (km) Brightness Sun altitude
Rises 01:20:14 0° 339° (NNW) 3,410 5.6 -19.0°
Reaches altitude 10° 01:22:42 10° 341° (NNW) 2,471 4.8 -19.4°
Maximum altitude 01:28:22 73° 67° (ENE) 883 2.1 -20.6°
Enters shadow 01:32:16 21° 149° (SSE) 1,815 3.6 -21.3°
